Showing default

OV2-3, 13912

Orbit data source: Space-Track

OV2-3, 13912 is a payload satellite owned by USAF SSD (US) in HEO that was launched on Tue, 21 Dec 1965 UTC via a TITAN IIIC launch vehicle from the Air Force Eastern Test Range (AFETR). Payload-class satellites include a variety of spacecraft equipped with specific instruments for various scientific and technological missions. These include communications satellites like Starlink; space stations such as the ISS; scientific satellites like the Hubble; Earth observation satellites from companies like Planet Labs, Umbra, and HawkEye 360; GPS; miniature CubeSats for education and research; and military/defense satellites.

Loading next visibility...
Identifier
13912, 1965-108V
Orbit
HEO
Country
Flag of USUS
Related business
Manufacturer
Northrop
Mission
Spacecraft
Bus & Motor
OV2, Unknown motor
Mass
2,144 kg wet, 194 kg dry
Launch date (UTC)
1965-12-21 (60 years ago)
Launch vehicle
TITAN IIIC
Launch site
Air Force Eastern Test Range (AFETR)
Object type
Payload
Rocket body
Debris
Shape & HBR
Unknown shape, 1.1 m
Radar Cross Section
Large (>1 m²)

Expand to show TLE details & history
Last TLE update: 18 hours ago

TLE from 18 hours ago
0 OV2-3
1 13912U 65108V   26133.18553410  .00012987  00000-0  89655-3 0  9991
2 13912  26.5610 103.7188 5225565 115.4010 306.7341  5.30881168568843
Epoch: 2026-05-13T04:27Z
TLE epoch observation values (Epoch: 2026-05-13T04:27:10.146Z)
Latitude
-0.00001°
Longitude
165.96476°
Altitude
6,620.273 km
Speed
5.711 km/s
True Right ascension
06h 54m 49s
True Declination
0° 00' 00"
Sunlit
Object was in daylight at epoch
Visualization orbit readout
Latitude
Unknown
Longitude
Unknown
Altitude
Unknown
Speed
Unknown
Apparent Right ascension
Unknown
Apparent Declination
Unknown
Sunlit
N/A
Visualization observer readout
Local Sidereal Time
06:54:06
Azimuth
Unknown
Elevation
Unknown
Doppler factor
Unknown
Orbital elements
Apogee altitude
14,761.107 km
Perigee altitude
250.71 km
Semi-major axis
13,884.046 km
Eccentricity
0.52256
Inclination
26.561°
RAAN
103.7188°
Arg. of periapsis
115.401°
True anomaly
244.67963°
Mean anomaly
306.7341°
Eccentric anomaly
277.01815°
Mean motion
1.32669 °/min
Orbital period
271.35 mins
BSTAR
0.00089655
Loading maneuver chart data...
Computing Atmospheric mass density...

Documentation

Showing up to 5 results
|